Location: Stara Lesna
(49.1528°N, 20.2911°E)
Time: 01:31:11
(UTC+02:00)

Cosmos 2221 Rocket - Pass Details

Date: 21 September 2019
Orbit: 621 x 647 km, 82.5° (Epoch: 21 October)

Event Time Altitude Azimuth Distance (km) Brightness Sun altitude
Rises 05:39:59 0° 185° (S) 2,888 6.8 -7.8°
Reaches altitude 10° 05:42:12 10° 184° (S) 1,987 6.0 -7.5°
Maximum altitude 05:46:36 81° 98° (E) 638 3.8 -6.8°
Drops below altitude 10° 05:51:03 10° 12° (NNE) 2,010 6.5 -6.1°
Sets 05:53:18 0° 11° (N) 2,925 7.3 -5.7°
